Time,TemperatureF,DewpointF,PressureIn,WindDirection,WindDirectionDegrees,WindSpeedMPH,WindSpeedGustMPH,Humidity,HourlyPrecipIn,Conditions,Clouds,dailyrainin,SoftwareType,DateUTC
2013-05-04 00:11:00,56.4,50.0,29.96,ENE,57,17.0,22.0,79,0.00,,,0.00,weatherlink.com 1.10,2013-05-04 04:11:00,
2013-05-04 00:26:00,56.2,50.0,29.96,ENE,63,13.0,20.0,80,0.00,,,0.00,weatherlink.com 1.10,2013-05-04 04:26:00,
2013-05-04 00:41:00,55.9,51.0,29.95,ENE,72,11.0,20.0,82,0.00,,,0.00,weatherlink.com 1.10,2013-05-04 04:41:00,
2013-05-04 00:56:00,55.7,51.0,29.95,ENE,67,16.0,16.0,83,0.00,,,0.00,weatherlink.com 1.10,2013-05-04 04:56:00,
2013-05-04 01:11:00,55.8,51.0,29.94,NE,34,13.0,21.0,84,0.00,,,0.00,weatherlink.com 1.10,2013-05-04 05:11:00,
2013-05-04 01:26:00,55.8,51.0,29.93,ENE,61,13.0,16.0,84,0.00,,,0.00,weatherlink.com 1.10,2013-05-04 05:26:00,
2013-05-04 01:42:00,55.9,51.0,29.93,NE,53,12.0,19.0,84,0.00,,,0.00,weatherlink.com 1.10,2013-05-04 05:42:00,
2013-05-04 01:57:00,56.0,52.0,29.93,NE,56,10.0,17.0,85,0.00,,,0.00,weatherlink.com 1.10,2013-05-04 05:57:00,
2013-05-04 02:12:00,56.1,52.0,29.92,ENE,63,13.0,15.0,86,0.00,,,0.00,weatherlink.com 1.10,2013-05-04 06:12:00,
2013-05-04 02:27:00,55.3,53.0,29.92,ENE,60,9.0,14.0,90,0.00,,,0.00,weatherlink.com 1.10,2013-05-04 06:27:00,
2013-05-04 02:42:00,55.4,52.0,29.92,ENE,66,9.0,15.0,89,0.00,,,0.00,weatherlink.com 1.10,2013-05-04 06:42:00,
2013-05-04 02:57:00,55.2,52.0,29.91,ENE,65,8.0,16.0,90,0.01,,,0.01,weatherlink.com 1.10,2013-05-04 06:57:00,
2013-05-04 03:12:00,54.8,52.0,29.91,NE,55,9.0,17.0,91,0.02,,,0.02,weatherlink.com 1.10,2013-05-04 07:12:00,
2013-05-04 03:27:00,54.5,52.0,29.91,ENE,63,13.0,14.0,92,0.03,,,0.03,weatherlink.com 1.10,2013-05-04 07:27:00,
2013-05-04 03:42:00,54.4,53.0,29.91,ENE,65,9.0,15.0,93,0.04,,,0.04,weatherlink.com 1.10,2013-05-04 07:42:00,
2013-05-04 03:58:00,54.1,53.0,29.91,ENE,67,10.0,12.0,94,0.04,,,0.05,weatherlink.com 1.10,2013-05-04 07:58:00,
2013-05-04 04:13:00,53.9,52.0,29.90,ENE,60,7.0,13.0,94,0.03,,,0.05,weatherlink.com 1.10,2013-05-04 08:13:00,
2013-05-04 04:28:00,54.1,53.0,29.90,ENE,65,8.0,14.0,94,0.03,,,0.06,weatherlink.com 1.10,2013-05-04 08:28:00,
2013-05-04 04:43:00,54.1,53.0,29.90,ENE,58,7.0,12.0,94,0.02,,,0.06,weatherlink.com 1.10,2013-05-04 08:43:00,
2013-05-04 04:58:00,54.1,53.0,29.90,East,79,8.0,14.0,94,0.01,,,0.06,weatherlink.com 1.10,2013-05-04 08:58:00,
2013-05-04 05:13:00,54.3,53.0,29.91,ENE,61,8.0,16.0,94,0.01,,,0.06,weatherlink.com 1.10,2013-05-04 09:13:00,
2013-05-04 05:28:00,54.3,53.0,29.91,ENE,71,8.0,16.0,94,0.01,,,0.07,weatherlink.com 1.10,2013-05-04 09:28:00,
2013-05-04 05:44:00,54.2,53.0,29.91,ENE,77,7.0,14.0,94,0.02,,,0.08,weatherlink.com 1.10,2013-05-04 09:44:00,
2013-05-04 05:59:00,54.1,53.0,29.91,ENE,67,11.0,17.0,95,0.03,,,0.09,weatherlink.com 1.10,2013-05-04 09:59:00,
2013-05-04 06:14:00,54.1,53.0,29.91,ENE,67,9.0,14.0,94,0.04,,,0.10,weatherlink.com 1.10,2013-05-04 10:14:00,
2013-05-04 06:29:00,54.2,53.0,29.91,ENE,58,6.0,14.0,94,0.03,,,0.10,weatherlink.com 1.10,2013-05-04 10:29:00,
2013-05-04 06:44:00,54.2,53.0,29.92,ENE,64,9.0,13.0,94,0.02,,,0.10,weatherlink.com 1.10,2013-05-04 10:44:00,
2013-05-04 06:59:00,56.3,54.0,29.92,NE,37,7.0,11.0,93,0.02,,,0.11,weatherlink.com 1.10,2013-05-04 10:59:00,
2013-05-04 07:14:00,-999.0,-99.9,29.92,North,-999,-999.0,-999.0,-999,0.01,,,0.11,weatherlink.com 1.10,2013-05-04 11:14:00,
2013-05-04 07:29:00,55.0,53.0,29.92,NNE,31,6.0,13.0,92,0.01,,,0.11,weatherlink.com 1.10,2013-05-04 11:29:00,
2013-05-04 07:45:00,55.3,53.0,29.92,ENE,68,7.0,10.0,91,0.01,,,0.11,weatherlink.com 1.10,2013-05-04 11:45:00,
2013-05-04 08:02:00,55.6,53.0,29.92,ENE,62,9.0,11.0,91,0.00,,,0.11,weatherlink.com 1.10,2013-05-04 12:02:00,
2013-05-04 08:15:00,56.4,54.0,29.92,ENE,70,7.0,13.0,90,0.00,,,0.11,weatherlink.com 1.10,2013-05-04 12:15:00,
2013-05-04 08:31:00,56.6,54.0,29.93,ENE,72,6.0,16.0,89,0.00,,,0.11,weatherlink.com 1.10,2013-05-04 12:31:00,
2013-05-04 08:45:00,57.0,54.0,29.92,ENE,60,10.0,17.0,88,0.00,,,0.11,weatherlink.com 1.10,2013-05-04 12:45:00,
2013-05-04 09:02:00,57.8,54.0,29.93,ENE,66,15.0,22.0,86,0.00,,,0.11,weatherlink.com 1.10,2013-05-04 13:02:00,
2013-05-04 09:15:00,58.5,54.0,29.92,ENE,62,16.0,21.0,84,0.00,,,0.11,weatherlink.com 1.10,2013-05-04 13:15:00,
2013-05-04 09:31:00,59.3,55.0,29.92,ENE,72,8.0,22.0,84,0.00,,,0.11,weatherlink.com 1.10,2013-05-04 13:31:00,
2013-05-04 09:46:00,59.8,54.0,29.91,ESE,105,10.0,21.0,82,0.00,,,0.11,weatherlink.com 1.10,2013-05-04 13:46:00,
2013-05-04 10:02:00,60.1,54.0,29.91,ENE,71,13.0,22.0,81,0.00,,,0.11,weatherlink.com 1.10,2013-05-04 14:02:00,
2013-05-04 10:16:00,60.3,54.0,29.91,East,83,13.0,22.0,80,0.00,,,0.11,weatherlink.com 1.10,2013-05-04 14:16:00,
2013-05-04 10:31:00,61.4,55.0,29.92,East,82,14.0,24.0,78,0.00,,,0.11,weatherlink.com 1.10,2013-05-04 14:31:00,
2013-05-04 10:46:00,61.9,54.0,29.92,ENE,68,17.0,19.0,76,0.00,,,0.11,weatherlink.com 1.10,2013-05-04 14:46:00,
2013-05-04 11:02:00,61.3,53.0,29.92,ENE,62,19.0,21.0,75,0.00,,,0.11,weatherlink.com 1.10,2013-05-04 15:02:00,
2013-05-04 11:17:00,62.1,54.0,29.92,NE,49,13.0,22.0,75,0.00,,,0.11,weatherlink.com 1.10,2013-05-04 15:17:00,
2013-05-04 11:32:00,62.3,54.0,29.92,ENE,75,18.0,24.0,75,0.00,,,0.11,weatherlink.com 1.10,2013-05-04 15:32:00,
2013-05-04 11:47:00,62.2,54.0,29.92,ENE,64,18.0,22.0,75,0.00,,,0.11,weatherlink.com 1.10,2013-05-04 15:47:00,
2013-05-04 12:03:00,63.5,55.0,29.91,ENE,64,21.0,21.0,74,0.00,,,0.11,weatherlink.com 1.10,2013-05-04 16:03:00,
2013-05-04 12:17:00,63.3,55.0,29.92,ENE,75,11.0,21.0,73,0.00,,,0.11,weatherlink.com 1.10,2013-05-04 16:17:00,
2013-05-04 12:32:00,63.3,55.0,29.91,ENE,59,20.0,21.0,73,0.00,,,0.11,weatherlink.com 1.10,2013-05-04 16:32:00,
2013-05-04 12:47:00,63.2,55.0,29.91,ENE,60,16.0,21.0,74,0.00,,,0.11,weatherlink.com 1.10,2013-05-04 16:47:00,
2013-05-04 13:03:00,63.3,55.0,29.90,East,94,9.0,23.0,73,0.00,,,0.11,weatherlink.com 1.10,2013-05-04 17:03:00,
2013-05-04 13:17:00,64.1,56.0,29.90,ENE,73,10.0,20.0,74,0.00,,,0.11,weatherlink.com 1.10,2013-05-04 17:17:00,
2013-05-04 13:33:00,64.4,56.0,29.90,ESE,116,11.0,22.0,73,0.00,,,0.11,weatherlink.com 1.10,2013-05-04 17:33:00,
2013-05-04 13:48:00,65.0,55.0,29.90,East,88,8.0,17.0,70,0.00,,,0.11,weatherlink.com 1.10,2013-05-04 17:48:00,
2013-05-04 14:04:00,64.2,55.0,29.90,NE,55,14.0,18.0,72,0.00,,,0.11,weatherlink.com 1.10,2013-05-04 18:04:00,
2013-05-04 14:18:00,63.5,55.0,29.89,East,79,14.0,19.0,74,0.00,,,0.11,weatherlink.com 1.10,2013-05-04 18:18:00,
2013-05-04 14:33:00,62.8,56.0,29.89,NE,51,9.0,21.0,77,0.00,,,0.11,weatherlink.com 1.10,2013-05-04 18:33:00,
2013-05-04 14:49:00,62.8,56.0,29.89,ENE,65,14.0,17.0,77,0.00,,,0.11,weatherlink.com 1.10,2013-05-04 18:49:00,
2013-05-04 15:04:00,61.5,57.0,29.89,ENE,68,15.0,19.0,84,0.00,,,0.11,weatherlink.com 1.10,2013-05-04 19:04:00,
2013-05-04 15:19:00,61.1,57.0,29.88,East,91,11.0,19.0,85,0.00,,,0.11,weatherlink.com 1.10,2013-05-04 19:19:00,
2013-05-04 15:34:00,60.4,57.0,29.88,ENE,60,17.0,21.0,87,0.00,,,0.11,weatherlink.com 1.10,2013-05-04 19:34:00,
2013-05-04 15:49:00,60.6,57.0,29.87,East,98,6.0,18.0,88,0.00,,,0.11,weatherlink.com 1.10,2013-05-04 19:49:00,
2013-05-04 16:05:00,59.8,57.0,29.87,East,84,8.0,15.0,91,0.00,,,0.11,weatherlink.com 1.10,2013-05-04 20:05:00,
2013-05-04 16:19:00,59.4,57.0,29.87,ENE,69,7.0,14.0,92,0.01,,,0.12,weatherlink.com 1.10,2013-05-04 20:19:00,
2013-05-04 16:35:00,59.4,57.0,29.87,ESE,108,4.0,17.0,92,0.01,,,0.12,weatherlink.com 1.10,2013-05-04 20:35:00,
2013-05-04 16:49:00,59.3,57.0,29.87,ENE,62,10.0,13.0,93,0.02,,,0.13,weatherlink.com 1.10,2013-05-04 20:49:00,
2013-05-04 17:05:00,59.0,57.0,29.87,ENE,67,9.0,13.0,93,0.03,,,0.14,weatherlink.com 1.10,2013-05-04 21:05:00,
2013-05-04 17:21:00,59.0,57.0,29.87,ENE,68,8.0,14.0,93,0.03,,,0.15,weatherlink.com 1.10,2013-05-04 21:21:00,
2013-05-04 17:35:00,59.0,57.0,29.87,ENE,75,7.0,13.0,94,0.04,,,0.16,weatherlink.com 1.10,2013-05-04 21:35:00,
2013-05-04 17:51:00,58.8,57.0,29.87,ENE,64,7.0,14.0,94,0.06,,,0.19,weatherlink.com 1.10,2013-05-04 21:51:00,
2013-05-04 18:06:00,58.6,57.0,29.86,ENE,74,9.0,17.0,94,0.06,,,0.20,weatherlink.com 1.10,2013-05-04 22:06:00,
2013-05-04 18:21:00,58.6,57.0,29.86,NE,53,7.0,19.0,94,0.06,,,0.21,weatherlink.com 1.10,2013-05-04 22:21:00,
2013-05-04 18:35:00,58.6,57.0,29.86,East,101,10.0,16.0,94,0.05,,,0.21,weatherlink.com 1.10,2013-05-04 22:35:00,
2013-05-04 18:51:00,58.7,57.0,29.86,East,95,7.0,11.0,93,0.02,,,0.21,weatherlink.com 1.10,2013-05-04 22:51:00,
2013-05-04 19:06:00,58.8,57.0,29.86,ENE,65,8.0,12.0,92,0.01,,,0.21,weatherlink.com 1.10,2013-05-04 23:06:00,
2013-05-04 19:21:00,58.8,56.0,29.86,ENE,69,7.0,16.0,90,0.00,,,0.21,weatherlink.com 1.10,2013-05-04 23:21:00,
2013-05-04 19:36:00,58.8,56.0,29.86,ENE,67,9.0,12.0,90,0.00,,,0.21,weatherlink.com 1.10,2013-05-04 23:36:00,
2013-05-04 19:51:00,59.2,55.0,29.86,NE,51,12.0,17.0,87,0.00,,,0.21,weatherlink.com 1.10,2013-05-04 23:51:00,
2013-05-04 20:07:00,59.3,55.0,29.87,ENE,72,9.0,17.0,86,0.00,,,0.21,weatherlink.com 1.10,2013-05-05 00:07:00,
2013-05-04 20:21:00,59.2,55.0,29.87,ENE,63,12.0,18.0,85,0.00,,,0.21,weatherlink.com 1.10,2013-05-05 00:21:00,
2013-05-04 20:36:00,58.9,54.0,29.87,ENE,63,11.0,16.0,85,0.00,,,0.21,weatherlink.com 1.10,2013-05-05 00:36:00,
2013-05-04 20:52:00,58.6,55.0,29.87,ENE,63,12.0,15.0,86,0.00,,,0.21,weatherlink.com 1.10,2013-05-05 00:52:00,
2013-05-04 21:07:00,58.8,54.0,29.87,ENE,70,14.0,20.0,85,0.00,,,0.21,weatherlink.com 1.10,2013-05-05 01:07:00,
2013-05-04 21:22:00,58.6,54.0,29.88,East,79,12.0,18.0,84,0.00,,,0.21,weatherlink.com 1.10,2013-05-05 01:22:00,
2013-05-04 21:37:00,58.7,54.0,29.89,NE,53,6.0,16.0,84,0.00,,,0.21,weatherlink.com 1.10,2013-05-05 01:37:00,
2013-05-04 21:52:00,58.6,54.0,29.89,East,91,8.0,18.0,85,0.00,,,0.21,weatherlink.com 1.10,2013-05-05 01:52:00,
2013-05-04 22:08:00,58.2,54.0,29.89,East,88,8.0,20.0,86,0.00,,,0.21,weatherlink.com 1.10,2013-05-05 02:08:00,
2013-05-04 22:22:00,57.0,54.0,29.90,NE,51,6.0,14.0,90,0.00,,,0.21,weatherlink.com 1.10,2013-05-05 02:22:00,
2013-05-04 22:37:00,56.8,54.0,29.89,ENE,72,9.0,14.0,90,0.00,,,0.21,weatherlink.com 1.10,2013-05-05 02:37:00,
2013-05-04 22:52:00,57.0,54.0,29.88,ENE,61,10.0,17.0,89,0.00,,,0.21,weatherlink.com 1.10,2013-05-05 02:52:00,
2013-05-04 23:08:00,56.7,54.0,29.88,ENE,73,11.0,19.0,89,0.00,,,0.21,weatherlink.com 1.10,2013-05-05 03:08:00,
2013-05-04 23:23:00,56.5,53.0,29.88,East,89,9.0,17.0,89,0.01,,,0.22,weatherlink.com 1.10,2013-05-05 03:23:00,
2013-05-04 23:38:00,56.5,54.0,29.88,ENE,64,9.0,14.0,90,0.01,,,0.22,weatherlink.com 1.10,2013-05-05 03:38:00,
2013-05-04 23:53:00,56.7,54.0,29.88,ENE,75,7.0,14.0,89,0.01,,,0.22,weatherlink.com 1.10,2013-05-05 03:53:00,